Starlink 32036

operational
NORAD ID: 60141 Int'l Des: 2024-120 Owner: SPXS Country: US Constellation: starlink
LEOCIRCULAR

Über Starlink 32036

Beschreibung wird geladen...

Live-Position

3D-Globus wird geladen...

Nächste Überflüge

Höhenverlauf

Altitude vs Time

uPlot chart will show altitude changes over time

Zweizeiliger Elementsatz

1 60141U 24120G 25305.41694591 -.00000831 00000-0 -15941-4 0 9993
2 60141 53.1605 195.9822 0001137 95.2467 264.8664 15.30184158 76819
Epoch: 1. Nov. 2025 • Age: 27 hours

Aktueller Status

Höhe 475.4 km
Geschwindigkeit 7.63 km/s
Subsatellitenpunkt 5.22°N, 123.55°E
Startdatum 27. Juni 2024
Alter 1.3 years
Typ internet

Technische Details

Klassifizierung Payload
Masse 730.00 kg
Trockenmasse 700.00 kg
Gesamtmasse 730.00 kg
Länge 0.30 m
Durchmesser 4.10 m
Spannweite 29.00 m
Form Box + pan
Hersteller SPXS
Bus-Typ Starlink V2M
Phasenstatus In Orbit
Besitzer/Staat SPXS/US

Große Konstellationen

Loading constellations...